Port Angeles, WA

8:43 AM PDT on June 27, 2017 (GMT -0700)
Fairchild International

Weather History for KCLM - January, 2013

Change the Weather History Date:

Wednesday, January 30, 2013

  Actual Average Record
Temperature  
Mean Temperature 46 °F -  
Max Temperature 48 °F 45 °F 60 °F (1989)
Min Temperature 44 °F 34 °F 14 °F (1950)
Degree Days  
Heating Degree Days 19    
Moisture  
Dew Point 44 °F    
Average Humidity 91    
Maximum Humidity 97    
Minimum Humidity 83    
Precipitation  
Precipitation 0.00 in - - ()
Sea Level Pressure  
Sea Level Pressure 30.35 in    
Wind  
Wind Speed 3 mph (West)    
Max Wind Speed 12 mph    
Max Gust Speed -    
Visibility 8 miles    
Events Rain    
Averages and records for this station are not official NWS values.
T = Trace of Precipitation, MM = Missing Value Source: NWS Daily Summary

Daily Weather History Graph

Daily Weather History Graph

Search for Another Location

Airport or City:

Trip Planner

Search our weather history database for the weather conditions in past years. The results will help you decide how hot, cold, wet, or windy it might be!

Date:

Astronomy

Jan. 30, 2013 Rise Set
Actual Time 7:44 AM PST 5:11 PM PST
Civil Twilight 7:10 AM PST 5:44 PM PST
Nautical Twilight 6:33 AM PST 6:22 PM PST
Astronomical Twilight 5:56 AM PST 6:58 PM PST
Moon 9:39 PM PST (1/30) 8:53 AM PST (1/30)
Length of Visible Light 10h 34m
Length of Day
9h 27m
Waning Gibbous, 87% of the Moon is Illuminated
Jan 30
Waning Gibbous
Feb 3
Last Quarter
Feb 9
New
Feb 17
First Quarter
Feb 25
Full

Hourly Weather History & Observations

Time (PST) Temp. Windchill Dew Point Humidity Pressure Visibility Wind Dir Wind Speed Gust Speed Precip Events Conditions
12:53 AM 45.0 °F 43.5 °F 43.0 °F 93% 30.31 in 10.0 mi SSE 3.5 mph - N/A   Overcast
1:53 AM 45.0 °F 43.5 °F 42.1 °F 90% 30.32 in 10.0 mi West 3.5 mph - N/A   Overcast
2:53 AM 44.1 °F - 42.1 °F 93% 30.32 in 10.0 mi Calm Calm - N/A   Overcast
3:53 AM 45.0 °F 42.6 °F 41.0 °F 86% 30.32 in 10.0 mi WSW 4.6 mph - N/A   Mostly Cloudy
4:53 AM 44.1 °F 42.5 °F 41.0 °F 89% 30.33 in 10.0 mi WSW 3.5 mph - 0.00 in Rain Light Rain
5:22 AM 44.1 °F 41.5 °F 42.1 °F 93% 30.32 in 10.0 mi SW 4.6 mph - 0.00 in Rain Light Rain
5:30 AM 45.0 °F 42.6 °F 42.1 °F 90% 30.32 in 10.0 mi WSW 4.6 mph - 0.00 in   Overcast
5:44 AM 45.0 °F 42.6 °F 42.1 °F 90% 30.32 in 10.0 mi West 4.6 mph - 0.00 in   Overcast
5:53 AM 45.0 °F 43.5 °F 43.0 °F 93% 30.33 in 10.0 mi West 3.5 mph - 0.00 in   Overcast
6:53 AM 45.0 °F 42.6 °F 43.0 °F 93% 30.33 in 10.0 mi WSW 4.6 mph - N/A   Mostly Cloudy
7:42 AM 45.0 °F 41.2 °F 42.1 °F 90% 30.33 in 10.0 mi WSW 6.9 mph - N/A   Overcast
7:53 AM 45.0 °F 42.6 °F 42.1 °F 90% 30.34 in 10.0 mi SW 4.6 mph - N/A   Overcast
8:53 AM 46.0 °F 43.9 °F 43.0 °F 89% 30.35 in 10.0 mi SW 4.6 mph - N/A   Overcast
9:53 AM 48.0 °F - 44.1 °F 86% 30.36 in 10.0 mi SSE 4.6 mph - N/A   Overcast
10:53 AM 48.9 °F - 45.0 °F 86% 30.37 in 10.0 mi Calm Calm - N/A   Overcast
11:14 AM 48.9 °F - 44.1 °F 83% 30.37 in 10.0 mi Calm Calm - N/A   Overcast
11:24 AM 48.9 °F - 45.0 °F 86% 30.36 in 10.0 mi Calm Calm - N/A   Overcast
11:53 AM 48.9 °F - 44.1 °F 83% 30.37 in 10.0 mi NNW 3.5 mph - N/A   Overcast
12:32 PM 48.9 °F - 45.0 °F 86% 30.37 in 10.0 mi Variable 4.6 mph - N/A   Overcast
12:53 PM 48.0 °F - 45.0 °F 89% 30.37 in 10.0 mi NW 4.6 mph - N/A   Overcast
1:53 PM 48.0 °F - 45.0 °F 89% 30.37 in 10.0 mi WNW 4.6 mph - N/A   Overcast
2:53 PM 48.0 °F - 45.0 °F 89% 30.37 in 10.0 mi Calm Calm - N/A   Overcast
3:53 PM 48.0 °F - 46.0 °F 93% 30.37 in 8.0 mi Calm Calm - 0.00 in Rain Light Rain
4:14 PM 48.0 °F - 46.0 °F 93% 30.36 in 9.0 mi Calm Calm - 0.00 in Rain Light Rain
4:24 PM 48.0 °F - 46.0 °F 93% 30.37 in 9.0 mi Calm Calm - 0.00 in Rain Light Rain
4:31 PM 48.0 °F - 46.0 °F 93% 30.37 in 10.0 mi Calm Calm - 0.00 in Rain Light Rain
4:53 PM 48.0 °F - 46.0 °F 93% 30.38 in 9.0 mi Calm Calm - 0.00 in Rain Light Rain
5:24 PM 46.9 °F - 45.0 °F 93% 30.36 in 7.0 mi Calm Calm - 0.00 in Rain Light Rain
5:40 PM 46.9 °F - 45.0 °F 93% 30.37 in 8.0 mi Calm Calm - 0.00 in Rain Light Rain
5:53 PM 46.9 °F - 46.0 °F 97% 30.38 in 6.0 mi Calm Calm - 0.00 in Rain Light Rain
6:23 PM 46.9 °F - 45.0 °F 93% 30.36 in 8.0 mi Calm Calm - 0.00 in   Overcast
6:46 PM 46.9 °F - 46.0 °F 97% 30.36 in 8.0 mi Calm Calm - 0.00 in   Overcast
6:53 PM 46.9 °F - 45.0 °F 93% 30.37 in 5.0 mi Calm Calm - 0.00 in   Overcast
7:08 PM 46.9 °F - 45.0 °F 93% 30.36 in 5.0 mi Calm Calm - 0.00 in Rain Light Rain
7:44 PM 46.9 °F - 45.0 °F 93% 30.36 in 2.5 mi Calm Calm - 0.00 in Rain Light Rain
7:53 PM 46.9 °F - 45.0 °F 93% 30.37 in 2.5 mi Calm Calm - 0.00 in Rain Light Rain
8:16 PM 46.9 °F - 45.0 °F 93% 30.36 in 3.0 mi Calm Calm - 0.00 in Rain Light Rain
8:45 PM 46.9 °F - 45.0 °F 93% 30.36 in 2.5 mi Calm Calm - 0.00 in   Overcast
8:53 PM 46.9 °F - 45.0 °F 93% 30.37 in 2.5 mi Calm Calm - 0.00 in Rain Light Rain
9:19 PM 46.9 °F - 45.0 °F 93% 30.36 in 2.5 mi NW 3.5 mph - 0.00 in Rain Light Rain
9:29 PM 46.9 °F - 45.0 °F 93% 30.36 in 4.0 mi NW 3.5 mph - 0.00 in Rain Light Rain
9:53 PM 46.9 °F - 45.0 °F 93% 30.37 in 4.0 mi NW 4.6 mph - 0.00 in Rain Light Rain
10:01 PM 46.9 °F - 45.0 °F 93% 30.37 in 6.0 mi NW 5.8 mph - 0.00 in   Overcast
10:23 PM 46.9 °F - 45.0 °F 93% 30.36 in 6.0 mi WNW 5.8 mph - 0.00 in   Overcast
10:53 PM 46.0 °F 43.1 °F 45.0 °F 96% 30.36 in 10.0 mi WNW 5.8 mph - 0.00 in   Overcast
11:53 PM 46.9 °F - 44.1 °F 90% 30.36 in 10.0 mi WSW 11.5 mph - N/A   Overcast